This is the latest recevied weather packets stored in our database for station/object KC5DAQ-29. If no packets are shown the sender has not sent any weather packets the latest 1 day(s).
| Time | Temp. | Humidity | Pressure | Rain* | Wind** | Luminosity | Snow |
|---|---|---|---|---|---|---|---|
| 1778008854 | 27.78° C | 100% | 1006.2 hPa | 0 mm | 0.89 m/s, 137° | 491 W/m² | - |
| 1778008794 | 27.78° C | 100% | 1006.1 hPa | 0 mm | 0.45 m/s, 165° | 445 W/m² | - |
| 1778008736 | 27.22° C | 100% | 1006.2 hPa | 0 mm | 0.45 m/s, 183° | 424 W/m² | - |
| 1778008675 | 27.22° C | 100% | 1006.2 hPa | 0 mm | 0.89 m/s, 185° | 427 W/m² | - |
| 1778008615 | 27.22° C | 100% | 1006.3 hPa | 0 mm | 1.34 m/s, 149° | 448 W/m² | - |
| 1778008555 | 27.22° C | 100% | 1006.2 hPa | 0 mm | 1.79 m/s, 131° | 329 W/m² | - |
| 1778008495 | 27.22° C | 100% | 1006.2 hPa | 0 mm | 0.89 m/s, 155° | 329 W/m² | - |
| 1778008435 | 27.22° C | 100% | 1006.2 hPa | 0 mm | 1.34 m/s, 154° | 329 W/m² | - |
| 1778008374 | 27.22° C | 100% | 1006.3 hPa | 0 mm | 2.24 m/s, 155° | 353 W/m² | - |
| 1778008315 | 27.22° C | 100% | 1006.2 hPa | 0 mm | 2.68 m/s, 213° | 353 W/m² | - |
| 1778008255 | 27.22° C | 100% | 1006.2 hPa | 0 mm | 2.68 m/s, 169° | 348 W/m² | - |
| 1778008193 | 27.22° C | 100% | 1006.3 hPa | 0 mm | 2.24 m/s, 193° | 348 W/m² | - |
| 1778008135 | 27.22° C | 100% | 1006.3 hPa | 32.51 mm | 1.79 m/s, 206° | 360 W/m² | - |
| 1778008075 | 27.22° C | 100% | 1006.3 hPa | 32.51 mm | 1.34 m/s, 72° | 360 W/m² | - |
| 1778008015 | 27.22° C | 100% | 1006.4 hPa | 32.51 mm | 2.24 m/s, 190° | 360 W/m² | - |
| 1778007955 | 27.22° C | 100% | 1006.4 hPa | 32.51 mm | 2.24 m/s, 196° | 360 W/m² | - |
| 1778007895 | 27.22° C | 100% | 1006.4 hPa | 32.51 mm | 2.24 m/s, 230° | 360 W/m² | - |
| 1778007834 | 27.22° C | 100% | 1006.4 hPa | 32.51 mm | 1.79 m/s, 161° | 383 W/m² | - |
| 1778007774 | 27.22° C | 100% | 1006.4 hPa | 32.51 mm | 1.79 m/s, 161° | 383 W/m² | - |
| 1778007691 | 27.22° C | 100% | 1006.4 hPa | 32.51 mm | 1.79 m/s, 176° | 383 W/m² | - |
| 1778007619 | 26.67° C | 100% | 1006.5 hPa | 32.51 mm | 1.79 m/s, 166° | 383 W/m² | - |
| 1778007550 | 27.22° C | 100% | 1006.4 hPa | 32.51 mm | 2.24 m/s, 197° | 382 W/m² | - |
| 1778007488 | 27.22° C | 100% | 1006.4 hPa | 32.51 mm | 3.58 m/s, 209° | 382 W/m² | - |
| 1778007425 | 27.22° C | 100% | 1006.4 hPa | 32.51 mm | 3.58 m/s, 165° | 376 W/m² | - |
| 1778007362 | 27.22° C | 100% | 1006.4 hPa | 32.51 mm | 3.13 m/s, 221° | 376 W/m² | - |
* Rain latest hour (hover to see other rain measurements)
** Current wind speed in m/s (hover to see current wind gust speed)